Regional Weather Roundup
Issued by NWS Lake Charles, LA

Home | Current Version | Previous Version | Text Only | Print | Product List | Glossary On
Versions: 1 2 3 4 5 6 7 8 9 10 11 12 13 14 15 16 17 18 19 20 21 22 23 24 25 26 27
000
ASUS44 KLCH 010710
RWRLCH
RWRLCH
REGIONAL WEATHER ROUNDUP
NATIONAL WEATHER SERVICE LAKE CHARLES LA
200 AM CDT SAT NOV 01 2014

Note: "fair" indicates few or no clouds below 12,000 feet with no
significant weather and/or obstructions to visibility.


ACROSS SOUTHEAST TEXAS

CITY           SKY/WX    TMP DP  RH WIND       PRES   REMARKS
BEAUMONT       CLEAR     52  45  77 N7        30.26R
BEAUMONT CITY    N/A     47  44  90 NW3       30.28R
ORANGE         SUNNY     54  45  72 N3        30.27S
JASPER         CLEAR     51  43  74 N6        30.30R
$$

ACROSS CENTRAL LOUISIANA

CITY           SKY/WX    TMP DP  RH WIND       PRES   REMARKS
LEESVILLE      CLEAR     50  40  68 NE9       30.28R
FULLERTON      NOT AVBL
ALEXANDRIA INT CLEAR     49  33  54 NE13      30.28S
ESLER FIELD    CLEAR     48  38  68 CALM      30.31R
DERIDDER         N/A     52  41  67 N8        30.29R
OAKDALE        SUNNY     51  41  69 NE7       30.27R
OPELOUSAS        N/A     51  42  72 N13       30.25S
$$

ACROSS SOUTHWEST AND SOUTH CENTRAL LOUISIANA

CITY           SKY/WX    TMP DP  RH WIND       PRES   REMARKS
SULPHUR        SUNNY     56  44  62 N10G16    30.25R
LAKE CHARLES   CLEAR     55  45  68 NE12      30.24S
CHENNAULT INT  CLEAR     53  46  75 N8G16     30.25R
CAMERON PHI    SUNNY     55  46  71 NE12      30.27S
DEQUINCY         N/A     51  45  79 N5        30.26R
JENNINGS         N/A     52  44  74 NE12      30.25R
LAFAYETTE      CLEAR     53  44  71 N12       30.24S
NEW IBERIA     CLEAR     52  46  80 N9        30.24S
ABBEVILLE        N/A     53  44  70 N8G16     30.23F
PATTERSON      CLEAR     54  43  66 N13       30.24R
SALT POINT       N/A     55  45  68 N7        30.21R
$$

SELECTED SITES ACROSS THE REGION

CITY           SKY/WX    TMP DP  RH WIND       PRES   REMARKS
HOUSTON BUSH   CLEAR     54  45  71 N5        30.30R
HOUSTON HOBBY  CLEAR     57  46  66 N12       30.28S
GALVESTON      CLEAR     63  49  60 N16       30.28R
COLLEGE STAT   CLEAR     52  41  66 N10       30.32S
CONROE         CLEAR     47  43  86 CALM      30.31S
HUNTSVILLE     CLEAR     47  42  83 CALM      30.32R
LUFKIN         CLEAR     52  42  69 N7        30.30S
SHREVEPORT     CLEAR     48  29  47 NE10      30.34R
MONROE         CLEAR     42  29  59 N6        30.35S
NATCHEZ MS     CLEAR     45  25  45 N8        30.30R
BATON ROUGE    CLEAR     51  41  68 VRB5      30.25R
N.O. INTL ARPT PTCLDY    56  40  55 N18G28    30.20S
SLIDELL        CLEAR     51  38  60 N14G24    30.20R
$$

MARINE REPORTS

STATION/POSITION TIME  TEMP    WIND        PRES    VSBY  WAVE
                       AIR SEA DIR/SP/G                  HT/PER
                 (UTC) (F)     (DEG/KT/KT) (MB)    (MI)  (FT/S)
BUOY 30 S HIGH I 0700   65 76   50/ 19/ 25 1023.8R         4/ 5
SEA RIM ST PARK  0700   57      30/  6/  8 1025.4R
PORT ARTHUR      0700      74   20/  5/ 11 1024.7R
SABINE PASS N    0700      72   30/  7/ 10 1024.7S
TEXAS POINT      NOT AVBL
CALCASIEU PASS   0700   58 69   50/  9/ 17   N/A
LK CHARLES BEACH 0700   55 73              1024.2R
MARSH ISLAND     NOT AVBL
FRESH WATER LOCK 0700   56 73   10/  8/ 12 1023.3S
AMERADA PASS     0700   56 65   20/  3/  6 1022.7R
$$



USA.gov is the U.S. government's official web portal to all federal, state and local government web resources and services.